Flag for Finland Weather past 2 weeks in Kuopio, Finland

Now
57 °F

Sunny.


Feels Like: 54 °F
Forecast: 45 / 53 °F
Wind: 14 mph from South

Location: Kuopio Airport

Current Time: May 22, 2015 at 10:42:01 PM

Latest Report: May 22, 2015 at 10:20 PM


Visibility: 10 mi

Pressure: 29.86 "Hg

Humidity: 51%

Dew point: 39 °F

Location of KuopioLocation

Historic Weather in Kuopio — Graph

°F

Kuopio temperature yesterday

Maximum temperature yesterday: 55 °F (at 4:50 PM)
Minimum temperature yesterday: 43 °F (at 3:50 AM)
Average temperature yesterday: 49 °F

Past Weeks' High & Low Weather Summary

 TemperatureHumidityPressure
High64 °F (May 22, 6:50 PM)100% (May 7, 11:50 PM)30.09 "Hg (May 7, 11:50 PM)
Low37 °F (May 15, 1:20 AM)31% (May 10, 5:50 PM)29.15 "Hg (May 14, 3:50 AM)
Average47 °F79%29.75 "Hg
* Reported May 7 9:20 PM — May 22 9:20 PM, Kuopio, Weather by CustomWeather, © 2015

Note: Actual official high and low records may vary slightly from our data, if they occured in-between our weather recording intervals... More about our weather records

Advertising

Kuopio weather history for previous 24 hours

 ConditionsComfort  
Time TempWeatherWind HumidityBarometerVisibility
9:20 PM
Fri, May 22
59 °FSunny.14 mph45%29.89 "Hg10 mi
8:50 PM59 °FSunny.14 mph48%29.89 "Hg10 mi
8:20 PM61 °FSunny.9 mph39%29.89 "Hg10 mi
7:50 PM61 °FSunny.10 mph39%29.89 "Hg10 mi
7:20 PM63 °FSunny.14 mph34%29.89 "Hg10 mi
6:50 PM64 °FSunny.14 mph32%29.89 "Hg10 mi
6:20 PM63 °FSunny.12 mph37%29.92 "Hg10 mi
5:50 PM63 °FSunny.15 mph39%29.92 "Hg10 mi
5:20 PM63 °FSunny.16 mph39%29.92 "Hg10 mi
4:50 PM61 °FSunny.17 mph42%29.95 "Hg10 mi
4:20 PM63 °FSunny.14 mph39%29.95 "Hg10 mi
3:50 PM63 °FSunny.18 mph39%29.95 "Hg10 mi
3:20 PM61 °FSunny.17 mph42%29.98 "Hg10 mi
2:50 PM61 °FSunny.15 mph39%29.98 "Hg10 mi
2:20 PM61 °FPassing clouds.13 mph39%29.98 "HgN/A
1:50 PM61 °FSunny.15 mph39%29.98 "Hg10 mi
1:20 PM61 °FSunny.15 mph39%30.01 "Hg10 mi
12:50 PM59 °FSunny.14 mph45%30.01 "Hg10 mi
12:20 PM59 °FSunny.15 mph48%30.01 "Hg10 mi
11:50 AM59 °FSunny.13 mph45%30.04 "Hg10 mi
11:20 AM57 °FSunny.10 mph41%30.04 "Hg10 mi
10:50 AM57 °FPassing clouds.8 mph48%30.04 "HgN/A
10:20 AM57 °FPassing clouds.8 mph51%30.04 "HgN/A
9:50 AM55 °FPassing clouds.7 mph51%30.04 "HgN/A
9:20 AM54 °FSunny.8 mph54%30.04 "Hg10 mi
8:50 AM52 °FSunny.7 mph62%30.04 "Hg10 mi
7:50 AM50 °FPassing clouds.5 mph71%30.04 "HgN/A
7:20 AM48 °FSunny.5 mph76%30.04 "Hg10 mi
6:50 AM48 °FSunny.5 mph71%30.01 "Hg10 mi
6:20 AM46 °FPassing clouds.5 mph82%30.01 "HgN/A
5:50 AM45 °FSunny.6 mph87%30.01 "Hg10 mi
5:20 AM45 °FSunny.6 mph81%30.01 "Hg10 mi
4:50 AM43 °FSunny.7 mph93%30.01 "Hg10 mi
4:20 AM43 °FClear.7 mph93%30.01 "Hg10 mi
3:50 AM43 °FClear.7 mph93%29.98 "Hg10 mi
3:20 AM45 °FClear.7 mph87%29.98 "Hg10 mi
2:50 AM45 °FClear.8 mph87%29.98 "Hg10 mi
2:20 AM46 °FClear.9 mph87%29.98 "Hg10 mi
1:50 AM46 °FClear.9 mph87%29.95 "Hg10 mi
1:20 AM48 °FClear.8 mph76%29.95 "Hg10 mi
12:50 AM48 °FSprinkles. Passing clouds.9 mph82%29.95 "HgN/A
12:20 AM48 °FClear.10 mph87%29.95 "Hg10 mi
11:50 PM
Thu, May 21
48 °FClear.8 mph82%29.92 "Hg10 mi
11:20 PM50 °FSunny.7 mph82%29.92 "Hg10 mi
10:50 PM50 °FSunny.5 mph82%29.92 "Hg10 mi
10:20 PM48 °FSunny.5 mph82%29.92 "Hg10 mi
Weather by CustomWeather, © 2015

See weather overviewHow to use our weather pages